Location: Chmeli�t?
(49.8978°N, 15.0526°E)
Time: 00:22:06
(UTC+00:00)

Cosmos 2074 Rocket - Pass Details

Date: 02 October 2020
Orbit: 967 x 986 km, 82.9° (Epoch: 24 October)

Event Time Altitude Azimuth Distance (km) Brightness Sun altitude
Rises 21:18:29 0° 353° (N) 3,696 7.8 -40.3°
Reaches altitude 10° 21:21:06 10° 358° (N) 2,741 6.9 -40.5°
Enters shadow 21:23:39 25° 8° (N) 1,875 5.8 -40.7°
